INTELSAT 21 (IS-21)

Last updated on Sun Sep 20 2026 00:02:57 GMT+0000 (Coordinated Universal Time)

1 38749U 12045A 26262.26803692 -.00000289 00000+0 00000+0 0 9995 2 38749 0.0174 140.8964 0002079 26.6607 229.1392 1.00271958 51469
UTC large
Height (km)
Speed (km/s)
/
Latitude / Longitude
Inclination (degrees)
Orbital Period (minutes)
Azimuth
Elevation
Range (km)
Doppler Factor

Next 0 passes for location: London (51.5072 / 0.1276)

No passes found over London.
INTELSAT 21 (IS-21)